This is the latest recevied weather packets stored in our database for station/object K3MV-13. If no packets are shown the sender has not sent any weather packets the latest 1 day(s).
| Time | Temp. | Humidity | Pressure | Rain* | Wind** | Luminosity | Snow |
|---|---|---|---|---|---|---|---|
| 1778036189 | 17.78° C | 52% | 1010 hPa | 0 mm | 0 m/s | 0 W/m² | - |
| 1778035885 | 17.78° C | 52% | 1010.2 hPa | 0 mm | 0.89 m/s, 193° | 0 W/m² | - |
| 1778035583 | 17.78° C | 51% | 1010.2 hPa | 0 mm | 0.45 m/s, 187° | 0 W/m² | - |
| 1778035278 | 17.78° C | 52% | 1010.2 hPa | 0 mm | 0 m/s | 0 W/m² | - |
| 1778034975 | 17.78° C | 52% | 1010.2 hPa | 0 mm | 0.89 m/s, 203° | 0 W/m² | - |
| 1778034672 | 17.78° C | 52% | 1010 hPa | 0 mm | 0.89 m/s, 200° | 0 W/m² | - |
| 1778034369 | 17.78° C | 50% | 1010.2 hPa | 0 mm | 1.34 m/s, 166° | 0 W/m² | - |
| 1778034067 | 17.78° C | 51% | 1010 hPa | 0 mm | 1.34 m/s, 213° | 0 W/m² | - |
| 1778033765 | 17.22° C | 52% | 1010 hPa | 0 mm | 0.89 m/s, 181° | 0 W/m² | - |
| 1778033461 | 17.22° C | 54% | 1009.7 hPa | 0 mm | 0.89 m/s, 193° | 0 W/m² | - |
| 1778033159 | 17.78° C | 53% | 1010 hPa | 0 mm | 0.89 m/s, 178° | 0 W/m² | - |
| 1778032856 | 17.78° C | 52% | 1010 hPa | 0 mm | 0.89 m/s, 163° | 0 W/m² | - |
| 1778032554 | 17.78° C | 50% | 1010.2 hPa | 0 mm | 0.89 m/s, 216° | 0 W/m² | - |
| 1778032250 | 17.78° C | 51% | 1010.3 hPa | 0 mm | 0.89 m/s, 173° | 0 W/m² | - |
| 1778031948 | 17.78° C | 52% | 1010.1 hPa | 0 mm | 0.89 m/s, 195° | 0 W/m² | - |
| 1778031643 | 17.78° C | 51% | 1010.1 hPa | 0 mm | 0.89 m/s, 226° | 0 W/m² | - |
| 1778031342 | 17.78° C | 51% | 1010.4 hPa | 0 mm | 0.89 m/s, 212° | 0 W/m² | - |
| 1778031038 | 17.22° C | 52% | 1010.3 hPa | 0 mm | 0.89 m/s, 191° | 0 W/m² | - |
| 1778030734 | 17.22° C | 52% | 1010.1 hPa | 0 mm | 0.89 m/s, 181° | 0 W/m² | - |
| 1778030431 | 17.78° C | 51% | 1010.1 hPa | 0 mm | 0.89 m/s, 171° | 0 W/m² | - |
| 1778030129 | 17.78° C | 51% | 1009.8 hPa | 0 mm | 0.89 m/s, 194° | 0 W/m² | - |
| 1778029825 | 17.22° C | 51% | 1010.2 hPa | 0 mm | 0.89 m/s, 212° | 0 W/m² | - |
| 1778029524 | 17.22° C | 52% | 1010 hPa | 0 mm | 0.89 m/s, 175° | 0 W/m² | - |
| 1778029220 | 17.22° C | 52% | 1010 hPa | 0 mm | 0.89 m/s, 188° | 0 W/m² | - |
| 1778028918 | 17.78° C | 50% | 1010 hPa | 0 mm | 1.34 m/s, 171° | 0 W/m² | - |
* Rain latest hour (hover to see other rain measurements)
** Current wind speed in m/s (hover to see current wind gust speed)